Weather History for Billings, MT

Change the Weather History Date:

Monday, May 27, 2013

  Actual Average Record
Temperature  
Mean Temperature 58 °F 59 °F  
Max Temperature 67 °F 71 °F 91 °F (1969)
Min Temperature 48 °F 47 °F 35 °F (1954)
Degree Days  
Heating Degree Days 7 7  
Month to date heating degree days 209 283  
Since 1 July heating degree days 6301 6660  
Cooling Degree Days 0 1  
Month to date cooling degree days 27 9  
Year to date cooling degree days 27 10  
Growing Degree Days 7 (Base 50)    
Moisture  
Dew Point 45 °F    
Average Humidity 67    
Maximum Humidity 89    
Minimum Humidity 44    
Precipitation  
Precipitation 0.39 in 0.07 in 1.50 in (1987)
Month to date precipitation 2.60 1.88  
Year to date precipitation 4.76 5.56  
Snow  
Snow T in 0.00 in T in (2013)
Month to date snowfall T 2.0  
Since 1 July snowfall 40.4 55.0  
Snow Depth 0.00 in    
Sea Level Pressure  
Sea Level Pressure 29.80 in    
Wind  
Wind Speed 6 mph (NW)    
Max Wind Speed 28 mph    
Max Gust Speed 33 mph    
Visibility 9 miles    
Events Rain , Thunderstorm    
T = Trace of Precipitation, MM = Missing Value Source: NWS Daily Summary

Daily Weather History Graph

Daily Weather History Graph

Search for Another Location

Airport:

Trip Planner

Search our weather history database for the weather conditions in past years. The results will help you decide how hot, cold, wet, or windy it might be!

Date:

Astronomy

May. 27, 2013 Rise Set
Actual Time 5:30 AM MDT 8:52 PM MDT
Civil Twilight 4:54 AM MDT 9:29 PM MDT
Nautical Twilight 4:06 AM MDT 10:17 PM MDT
Astronomical Twilight 3:05 AM MDT 11:18 PM MDT
Moon 11:29 PM MDT (5/27) 8:14 AM MDT (5/27)
Length of Visible Light 16h 35m
Length of Day
15h 21m
Waning Gibbous, 90% of the Moon is Illuminated
May 27
Waning Gibbous
May 31
Last Quarter
Jun 8
New
Jun 16
First Quarter
Jun 23
Full

Hourly Weather History & Observations

Time (MDT) Temp. Dew Point Humidity Pressure Visibility Wind Dir Wind Speed Gust Speed Precip Events Conditions
12:53 AM 53.1 °F 50.0 °F 89% 29.83 in 10.0 mi NNW 16.1 mph - N/A   Scattered Clouds
1:17 AM 54.0 °F 50.0 °F 86% 29.89 in 10.0 mi North 11.5 mph - N/A   Mostly Cloudy
1:53 AM 54.0 °F 50.0 °F 86% 29.83 in 10.0 mi NNE 5.8 mph - N/A   Mostly Cloudy
2:19 AM 53.1 °F 48.9 °F 86% 29.88 in 10.0 mi NNW 6.9 mph - N/A   Mostly Cloudy
2:53 AM 52.0 °F 48.0 °F 86% 29.81 in 10.0 mi NNW 5.8 mph - N/A   Mostly Cloudy
3:53 AM 50.0 °F 45.0 °F 83% 29.81 in 10.0 mi WNW 6.9 mph - N/A   Scattered Clouds
4:53 AM 50.0 °F 45.0 °F 83% 29.84 in 10.0 mi WNW 8.1 mph - N/A   Scattered Clouds
5:53 AM 50.0 °F 45.0 °F 83% 29.84 in 10.0 mi SW 5.8 mph - N/A   Scattered Clouds
6:53 AM 52.0 °F 45.0 °F 77% 29.83 in 10.0 mi WSW 5.8 mph - N/A   Scattered Clouds
7:53 AM 57.0 °F 45.0 °F 64% 29.80 in 10.0 mi North 3.5 mph - N/A   Scattered Clouds
8:53 AM 60.1 °F 45.0 °F 57% 29.79 in 10.0 mi NNE 4.6 mph - N/A   Scattered Clouds
9:53 AM 61.0 °F 45.0 °F 56% 29.78 in 10.0 mi NNW 4.6 mph - N/A   Scattered Clouds
10:53 AM 64.0 °F 45.0 °F 50% 29.76 in 10.0 mi NNW 11.5 mph - N/A   Scattered Clouds
11:53 AM 64.0 °F 44.1 °F 48% 29.76 in 10.0 mi WNW 8.1 mph - N/A   Mostly Cloudy
12:08 PM 63.0 °F 44.1 °F 50% 29.81 in 10.0 mi West 3.5 mph - N/A Thunderstorm Thunderstorm
12:23 PM 57.0 °F 41.0 °F 55% 29.84 in 8.0 mi West 23.0 mph 29.9 mph 0.00 in Rain , Thunderstorm Light Thunderstorms and Rain
12:32 PM 48.0 °F 39.9 °F 74% 29.86 in 3.0 mi WSW 17.3 mph - 0.15 in Rain , Thunderstorm Heavy Thunderstorms and Rain
12:44 PM 51.1 °F 44.1 °F 77% 29.87 in 7.0 mi SW 11.5 mph 21.9 mph 0.30 in Rain , Thunderstorm Thunderstorms and Rain
12:53 PM 51.1 °F 45.0 °F 80% 29.85 in 5.0 mi SW 11.5 mph - 0.31 in Rain , Thunderstorm Thunderstorms and Rain
1:28 PM 52.0 °F 46.0 °F 80% 29.83 in 10.0 mi East 8.1 mph - 0.04 in Rain Light Rain
1:53 PM 52.0 °F 46.0 °F 80% 29.83 in 10.0 mi North 6.9 mph - 0.04 in   Mostly Cloudy
2:53 PM 57.9 °F 43.0 °F 58% 29.78 in 10.0 mi ESE 5.8 mph - N/A   Scattered Clouds
3:53 PM 61.0 °F 45.0 °F 56% 29.77 in 10.0 mi North 3.5 mph - N/A   Mostly Cloudy
4:53 PM 64.0 °F 42.1 °F 45% 29.76 in 10.0 mi Variable 3.5 mph - N/A   Scattered Clouds
5:08 PM 62.1 °F 43.0 °F 50% 29.81 in 10.0 mi Calm Calm - N/A Thunderstorm Thunderstorm
5:53 PM 55.0 °F 48.0 °F 77% 29.79 in 8.0 mi North 8.1 mph - 0.04 in Rain , Thunderstorm Light Thunderstorms and Rain
6:26 PM 57.0 °F 48.9 °F 74% 29.79 in 10.0 mi ENE 5.8 mph - 0.00 in   Scattered Clouds
6:53 PM 57.0 °F 48.9 °F 74% 29.75 in 10.0 mi SSE 4.6 mph - 0.00 in   Scattered Clouds
7:53 PM 59.0 °F 46.9 °F 64% 29.74 in 10.0 mi Calm Calm - N/A   Partly Cloudy
8:53 PM 57.9 °F 46.0 °F 65% 29.73 in 10.0 mi Calm Calm - N/A   Partly Cloudy
9:53 PM 57.0 °F 45.0 °F 64% 29.75 in 10.0 mi SW 4.6 mph - N/A   Partly Cloudy
10:53 PM 54.0 °F 45.0 °F 72% 29.75 in 10.0 mi South 5.8 mph - N/A   Partly Cloudy
11:53 PM 53.1 °F 45.0 °F 74% 29.74 in 10.0 mi Calm Calm - N/A   Partly Cloudy